Location: Alvediston
(51.0078°N, 2.0364°W)
Time: 18:45:45
(UTC+00:00)

STARLINK-78 - Pass Details

Date: 27 February 2020
Orbit: 528 x 531 km, 53.0° (Epoch: 29 March)

Event Time Altitude Azimuth Distance (km) Brightness Sun altitude
Rises 18:57:54 0° 272° (W) 2,666 9.3 -12.3°
Reaches altitude 10° 19:00:08 10° 276° (W) 1,776 7.7 -12.6°
Maximum altitude 19:04:09 64° 359° (N) 590 3.7 -13.3°
Enters shadow 19:06:37 22° 76° (ENE) 1,193 4.8 -13.6°
